This is the latest recevied weather packets stored in our database for station/object N3SBK. If no packets are shown the sender has not sent any weather packets the latest 10 day(s).
| Time | Temp. | Humidity | Pressure | Rain* | Wind** | Luminosity | Snow |
|---|---|---|---|---|---|---|---|
| 1787755349 | 20.56° C | 81% | 1010.3 hPa | 0 mm | - | 42 W/m² | - |
| 1787755048 | 20.56° C | 81% | 1010.3 hPa | 0 mm | - | 40 W/m² | - |
| 1787754743 | 20.56° C | 80% | 1010.1 hPa | 0 mm | - | 43 W/m² | - |
| 1787754440 | 19.44° C | 87% | 1010.4 hPa | 0 mm | - | 42 W/m² | - |
| 1787754136 | 19.44° C | 89% | 1010.6 hPa | 0 mm | - | 42 W/m² | - |
| 1787753830 | 18.89° C | 90% | 1010.4 hPa | 0 mm | - | 40 W/m² | - |
| 1787753529 | 18.89° C | 91% | 1010.4 hPa | 0 mm | - | 33 W/m² | - |
| 1787753228 | 18.33° C | 91% | 1010.5 hPa | 0 mm | - | 34 W/m² | - |
| 1787752923 | 17.78° C | 94% | 1010.6 hPa | 0 mm | - | 31 W/m² | - |
| 1787752622 | 17.78° C | 94% | 1010.6 hPa | 0 mm | - | 31 W/m² | - |
| 1787752318 | 17.22° C | 95% | 1010.5 hPa | 0 mm | - | 31 W/m² | - |
| 1787752016 | 17.22° C | 96% | 1010.7 hPa | 0 mm | - | 31 W/m² | - |
| 1787751712 | 16.67° C | 96% | 1010.7 hPa | 0 mm | - | 32 W/m² | - |
| 1787751407 | 16.67° C | 97% | 1010.8 hPa | 0 mm | - | 34 W/m² | - |
| 1787751102 | 16.11° C | 97% | 1010.7 hPa | 0 mm | - | 32 W/m² | - |
| 1787750798 | 16.11° C | 98% | 1010.8 hPa | 0 mm | - | 30 W/m² | - |
| 1787750497 | 15.56° C | 98% | 1010.9 hPa | 0 mm | - | 29 W/m² | - |
| 1787750192 | 15.56° C | 98% | 1011 hPa | 0 mm | - | 27 W/m² | - |
| 1787749888 | 15° C | 98% | 1011.1 hPa | 0 mm | - | 27 W/m² | - |
| 1787749584 | 15° C | 98% | 1010.8 hPa | 0 mm | - | 28 W/m² | - |
| 1787749280 | 15° C | 98% | 1011.2 hPa | 0 mm | - | 27 W/m² | - |
| 1787748975 | 14.44° C | 98% | 1011 hPa | 0 mm | - | 25 W/m² | - |
| 1787748669 | 14.44° C | 98% | 1011 hPa | 0 mm | - | 24 W/m² | - |
| 1787748364 | 14.44° C | 98% | 1011.1 hPa | 0 mm | - | 24 W/m² | - |
| 1787748060 | 13.89° C | 98% | 1011.2 hPa | 0 mm | - | 23 W/m² | - |
* Rain latest hour (hover to see other rain measurements)
** Current wind speed in m/s (hover to see current wind gust speed)